STARLINK-4064 (52665 NORAD) Tracking and Keplerian Element Data

This shows tracking and keplerian element data for the satellite.

Feedback or suggestion? Click here.




ElementValue
Catalog52665
NameSTARLINK-4064
Epoch Orbit2084
Epoch Day269.77561451
Epoch Year2022
RAAN50.1026
Inclination53.22
Eccentricity0.0001808
Argument of Perigee50.1873
Mean Anonmoly309.9278
Mean Motion15.08832328
Decay Rate-8.73E-06
L11 52665U 22053K 22269.77561451 -.00000873 00000+0 -36782-4 0 9992
L22 52665 53.2200 50.1026 0001808 50.1873 309.9278 15.08832328 20845

Live tracking and technical data element details for STARLINK-4064 (NORAD 52665). STARLINK-4064 can be tracked NOW for your location showing map with azimuth and elevation plus other details from your city location.

Track the satellite on the map from your city or location and see movement details for azimuth, elevation, latitude, longitude, range, height, and movement on the map or in text.







IsCatalogInMostPopularTable: catalog: 52665, numindb: 10
Update: records affected: 1



GetName: 52665 STARLINK-4064

Hit Count: updated at: Thu, 06 Oct 2022 05:24:01 GMT